This demonstration page uses our WeatherBlox Daily Observations layout. Learn more.

Left ArrowRight Arrow

39.12711, -84.51439

Hourly Observations for October 28, 2016

Temp ( °F °C ) Dew Point ( °F °C ) Humidity (%) Winds ( mph kmh ) Pressure ( in mb ) Visibility ( mi km ) Precip ( " mm )
12:43 am 00:43 Partly Cloudy 47 8.3 45 7.2 93 93 NE 3 6 30.30 1026 10 16 0.00 0.00
12:53 am 00:53 Mostly Cloudy 47 8.3 46 7.8 97 97 ENE 3 6 30.29 1026 10 16 0.00 0.00
1:53 am 01:53 Cloudy 46 7.8 45 7.2 96 96 Calm 30.30 1026 10 16 0.00 0.00
2:53 am 02:53 Cloudy 47 8.3 45 7.2 93 93 Calm 30.29 1026 10 16 0.00 0.00
3:53 am 03:53 Cloudy 47 8.3 46 7.8 97 97 Calm 30.30 1026 10 16 0.00 0.00
4:53 am 04:53 Clear 45 7.2 45 7.2 100 100 Calm 30.30 1026 9 14 0.00 0.00
5:38 am 05:38 Clear with Mist and Fog 44 6.7 44 6.7 100 100 Calm 30.30 1026 2 3 0.00 0.00
5:48 am 05:48 Clear 43 6 43 6 100 100 Calm 30.30 1026 7 11 0.00 0.00
5:53 am 05:53 Clear with Mist and Fog 43 6.1 43 6.1 100 100 Calm 30.32 1027 6 10 0.00 0.00
6:26 am 06:26 Clear with Mist and Fog 41 5 41 5 100 100 ENE 3 6 30.33 1027 3 4 0.00 0.00
6:33 am 06:33 Clear with Mist and Fog 42 5.6 42 5.6 100 100 NE 3 6 30.33 1027 5 8 0.00 0.00
6:53 am 06:53 Mostly Clear 42 5.6 42 5.6 100 100 NE 3 6 30.34 1027 7 11 0.00 0.00
7:33 am 07:33 Mostly Clear with Mist and Fog 41 5 41 5 100 100 Calm 30.33 1027 1 2 0.00 0.00
7:40 am 07:40 Mostly Clear with Patchy Fog 41 5 41 5 100 100 Calm 30.33 1027 7 11 0.00 0.00
7:53 am 07:53 Clear with Patchy Fog 41 5 41 5 100 100 NE 3 6 30.35 1028 8 13 0.00 0.00
8:53 am 08:53 Sunny 43 6.1 43 6.1 100 100 ENE 3 6 30.37 1028 10 16 0.00 0.00
9:53 am 09:53 Sunny 49 9.4 46 7.8 90 90 NE 3 6 30.36 1028 10 16 0.00 0.00
10:53 am 10:53 Sunny 53 11.7 47 8.3 80 80 Calm 30.36 1028 10 16 0.00 0.00
11:53 am 11:53 Sunny 56 13.3 46 7.8 70 70 S 7 11 30.35 1028 10 16 0.00 0.00
12:53 pm 12:53 Sunny 58 14.4 47 8.3 67 67 SSE 6 9 30.32 1027 10 16 0.00 0.00
1:53 pm 13:53 Sunny 61 16.1 47 8.3 60 60 VRB 7 11 30.28 1026 10 16 0.00 0.00
2:53 pm 14:53 Sunny 63 17.2 48 8.9 58 58 SSW 7 11 30.25 1024 10 16 0.00 0.00
3:53 pm 15:53 Sunny 64 17.8 49 9.4 58 58 S 6 9 30.22 1023 10 16 0.00 0.00
4:53 pm 16:53 Sunny 65 18.3 48 8.9 54 54 S 5 7 30.21 1023 10 16 0.00 0.00
5:53 pm 17:53 Sunny 63 17.2 49 9.4 60 60 SSE 6 9 30.20 1023 10 16 0.00 0.00
6:53 pm 18:53 Clear 56 13.3 51 10.6 84 84 Calm 30.20 1023 10 16 0.00 0.00
7:53 pm 19:53 Clear 53 11.7 50 10 89 89 Calm 30.21 1023 10 16 0.00 0.00
8:53 pm 20:53 Clear 50 10 49 9.4 96 96 Calm 30.20 1023 10 16 0.00 0.00
9:53 pm 21:53 Clear 49 9.4 49 9.4 100 100 Calm 30.19 1022 10 16 0.00 0.00
10:53 pm 22:53 Clear 48 8.9 48 8.9 100 100 Calm 30.18 1022 10 16 0.00 0.00
11:53 pm 23:53 Clear with Mist and Fog 46 7.8 46 7.8 100 100 Calm 30.17 1022 4 6 0.00 0.00
11:56 pm 23:56 Clear with Mist and Fog 46 8 46 8 100 100 Calm 30.18 1022 1 1 0.00 0.00

Powered by AerisWeather